When you browse on this site, cookies collect data to enhance your experience and personalize the content and advertising you see.
Visit our Privacy Policy to learn more. By continuing to use the site, you agree to this use of cookies and data.
  • En España
  • Lista de países
  • Para 7 días
  • Temperatura del agua
  • Mapa Satelital
  • El tiempo en el mapa
  • Informadores
  • user-avatar
    Iniciar sesión

    Tiempo cada hora Split

    Hoy, 16 Junio, Domingo

    Tiempo Temperatura Precipitaciones Viento Presión Humedad
    00:00 +26°C° 0 mm 1 mps 758 mmHg 74%
    01:00 +26°C° 0 mm 1 mps 758 mmHg 75%
    02:00 +25°C° 0 mm 1 mps 757 mmHg 75%
    03:00 +25°C° 0 mm 2 mps 757 mmHg 75%
    04:00 +25°C° 0 mm 2 mps 757 mmHg 75%
    05:00 +26°C° 0 mm 2 mps 757 mmHg 72%
    06:00 +27°C° 0 mm 2 mps 757 mmHg 69%
    07:00 +28°C° 0 mm 1 mps 757 mmHg 64%
    08:00 +29°C° 0 mm 2 mps 757 mmHg 61%
    09:00 +30°C° 0 mm 3 mps 757 mmHg 58%
    10:00 +32°C° 0 mm 4 mps 757 mmHg 55%
    11:00 +32°C° 0 mm 4 mps 757 mmHg 55%
    12:00 +33°C° 0 mm 4 mps 758 mmHg 56%
    13:00 +33°C° 0 mm 5 mps 758 mmHg 57%
    14:00 +33°C° 0 mm 5 mps 758 mmHg 57%
    15:00 +32°C° 0 mm 5 mps 758 mmHg 58%
    16:00 +32°C° 0 mm 5 mps 758 mmHg 59%
    17:00 +29°C° 0.1 mm 4 mps 758 mmHg 64%
    18:00 +27°C° 0.1 mm 3 mps 758 mmHg 70%
    19:00 +26°C° 0.1 mm 3 mps 758 mmHg 75%
    20:00 +25°C° 0 mm 2 mps 758 mmHg 73%
    21:00 +24°C° 0 mm 2 mps 758 mmHg 72%
    22:00 +23°C° 0 mm 2 mps 759 mmHg 70%
    23:00 +23°C° 0 mm 2 mps 759 mmHg 69%

    Mañana, 17 Junio, Lunes

    Tiempo Temperatura Precipitaciones Viento Presión Humedad
    00:00 +23°C° 0 mm 2 mps 759 mmHg 68%
    01:00 +23°C° 0 mm 2 mps 759 mmHg 67%
    02:00 +21°C° 0 mm 2 mps 759 mmHg 67%
    03:00 +21°C° 0 mm 2 mps 758 mmHg 68%
    04:00 +21°C° 0 mm 3 mps 758 mmHg 68%
    05:00 +22°C° 0 mm 3 mps 758 mmHg 68%
    06:00 +24°C° 0 mm 2 mps 759 mmHg 69%
    07:00 +25°C° 0 mm 2 mps 759 mmHg 69%
    08:00 +27°C° 0 mm 2 mps 759 mmHg 65%
    09:00 +28°C° 0 mm 1 mps 759 mmHg 61%
    10:00 +30°C° 0 mm 1 mps 759 mmHg 57%
    11:00 +30°C° 0 mm 1 mps 759 mmHg 58%
    12:00 +30°C° 0 mm 2 mps 759 mmHg 58%
    13:00 +30°C° 0 mm 2 mps 759 mmHg 59%
    14:00 +30°C° 0.1 mm 2 mps 758 mmHg 60%
    15:00 +29°C° 0.1 mm 2 mps 758 mmHg 61%
    16:00 +29°C° 0.1 mm 2 mps 758 mmHg 63%
    17:00 +28°C° 0.1 mm 1 mps 758 mmHg 67%
    18:00 +27°C° 0.1 mm 1 mps 758 mmHg 72%
    19:00 +26°C° 0.1 mm 1 mps 758 mmHg 76%
    20:00 +26°C° 0 mm 1 mps 758 mmHg 78%
    21:00 +25°C° 0 mm 1 mps 758 mmHg 79%
    22:00 +24°C° 0 mm 1 mps 759 mmHg 81%
    23:00 +24°C° 0 mm 1 mps 759 mmHg 81%

    Pasado mañana, 18 Junio, Martes

    Tiempo Temperatura Precipitaciones Viento Presión Humedad
    00:00 +24°C° 0 mm 1 mps 758 mmHg 81%
    01:00 +23°C° 0 mm 1 mps 758 mmHg 81%
    02:00 +23°C° 0 mm 1 mps 758 mmHg 81%
    03:00 +23°C° 0 mm 1 mps 758 mmHg 80%
    04:00 +23°C° 0 mm 1 mps 758 mmHg 79%
    05:00 +24°C° 0 mm 1 mps 759 mmHg 77%
    06:00 +25°C° 0 mm 1 mps 759 mmHg 76%
    07:00 +26°C° 0 mm 1 mps 759 mmHg 74%
    08:00 +27°C° 0 mm 1 mps 759 mmHg 70%
    09:00 +28°C° 0 mm 1 mps 759 mmHg 66%
    10:00 +29°C° 0 mm 1 mps 759 mmHg 62%
    11:00 +29°C° 0.2 mm 1 mps 759 mmHg 61%
    12:00 +30°C° 0.2 mm 1 mps 759 mmHg 59%
    13:00 +30°C° 0.2 mm 2 mps 759 mmHg 58%
    14:00 +30°C° 0.2 mm 2 mps 758 mmHg 60%
    15:00 +29°C° 0.2 mm 2 mps 758 mmHg 62%
    16:00 +29°C° 0.2 mm 2 mps 758 mmHg 64%
    17:00 +28°C° 0.3 mm 2 mps 758 mmHg 69%
    18:00 +27°C° 0.3 mm 1 mps 758 mmHg 74%
    19:00 +26°C° 0.3 mm 1 mps 758 mmHg 79%
    20:00 +25°C° 0 mm 1 mps 758 mmHg 79%
    21:00 +24°C° 0 mm 1 mps 758 mmHg 80%
    22:00 +24°C° 0 mm 1 mps 758 mmHg 80%
    23:00 +23°C° 0 mm 1 mps 758 mmHg 80%

    19 Junio, Miércoles

    Tiempo Temperatura Precipitaciones Viento Presión Humedad
    00:00 +23°C° 0 mm 1 mps 758 mmHg 80%
    01:00 +23°C° 0 mm 1 mps 758 mmHg 79%
    02:00 +23°C° 0 mm 1 mps 758 mmHg 79%
    03:00 +22°C° 0 mm 1 mps 758 mmHg 79%
    04:00 +22°C° 0 mm 1 mps 758 mmHg 78%
    05:00 +23°C° 0 mm 1 mps 758 mmHg 76%
    06:00 +25°C° 0 mm 1 mps 758 mmHg 73%
    07:00 +24°C° 0 mm 0 mps 758 mmHg 70%
    08:00 +27°C° 0 mm 1 mps 758 mmHg 66%
    09:00 +28°C° 0 mm 1 mps 758 mmHg 62%
    10:00 +29°C° 0 mm 2 mps 758 mmHg 58%
    11:00 +29°C° 0 mm 2 mps 758 mmHg 58%
    12:00 +29°C° 0 mm 3 mps 757 mmHg 59%
    13:00 +29°C° 0 mm 3 mps 757 mmHg 59%
    14:00 +29°C° 0 mm 3 mps 757 mmHg 60%
    15:00 +29°C° 0 mm 3 mps 757 mmHg 61%
    16:00 +29°C° 0 mm 3 mps 757 mmHg 62%
    17:00 +28°C° 0 mm 3 mps 757 mmHg 67%
    18:00 +27°C° 0 mm 3 mps 757 mmHg 71%
    19:00 +26°C° 0 mm 2 mps 757 mmHg 76%
    20:00 +25°C° 0 mm 2 mps 757 mmHg 78%
    21:00 +24°C° 0 mm 2 mps 757 mmHg 81%
    22:00 +23°C° 0 mm 1 mps 758 mmHg 83%
    23:00 +23°C° 0 mm 1 mps 757 mmHg 83%

    20 Junio, Jueves

    Tiempo Temperatura Precipitaciones Viento Presión Humedad
    00:00 +23°C° 0 mm 1 mps 757 mmHg 84%
    01:00 +23°C° 0 mm 1 mps 757 mmHg 85%
    02:00 +22°C° 0 mm 1 mps 757 mmHg 84%
    03:00 +22°C° 0 mm 1 mps 757 mmHg 84%
    04:00 +22°C° 0 mm 1 mps 757 mmHg 84%
    05:00 +23°C° 0 mm 1 mps 757 mmHg 79%
    06:00 +24°C° 0 mm 1 mps 757 mmHg 74%
    07:00 +24°C° 0 mm 0 mps 758 mmHg 69%
    08:00 +27°C° 0 mm 1 mps 758 mmHg 65%
    09:00 +28°C° 0 mm 1 mps 758 mmHg 61%
    10:00 +29°C° 0 mm 2 mps 758 mmHg 56%
    11:00 +29°C° 0 mm 2 mps 757 mmHg 57%
    12:00 +29°C° 0 mm 2 mps 757 mmHg 57%
    13:00 +29°C° 0 mm 2 mps 757 mmHg 58%
    14:00 +29°C° 0.1 mm 2 mps 757 mmHg 59%
    15:00 +29°C° 0.1 mm 2 mps 757 mmHg 61%
    16:00 +28°C° 0.1 mm 2 mps 757 mmHg 62%
    17:00 +27°C° 0 mm 2 mps 757 mmHg 67%
    18:00 +27°C° 0 mm 1 mps 757 mmHg 71%
    19:00 +26°C° 0 mm 1 mps 757 mmHg 75%
    20:00 +25°C° 0 mm 1 mps 757 mmHg 77%
    21:00 +24°C° 0 mm 1 mps 758 mmHg 78%
    22:00 +24°C° 0 mm 1 mps 758 mmHg 80%
    23:00 +23°C° 0 mm 1 mps 758 mmHg 80%

    21 Junio, Viernes

    Tiempo Temperatura Precipitaciones Viento Presión Humedad
    00:00 +23°C° 0 mm 1 mps 758 mmHg 81%
    01:00 +23°C° 0 mm 1 mps 758 mmHg 81%
    02:00 +23°C° 0 mm 1 mps 758 mmHg 79%
    03:00 +22°C° 0 mm 1 mps 758 mmHg 78%
    04:00 +22°C° 0 mm 1 mps 758 mmHg 76%
    05:00 +24°C° 0 mm 1 mps 758 mmHg 72%
    06:00 +25°C° 0 mm 1 mps 758 mmHg 67%
    07:00 +26°C° 0 mm 1 mps 758 mmHg 63%
    08:00 +28°C° 0 mm 1 mps 758 mmHg 59%
    09:00 +29°C° 0 mm 2 mps 759 mmHg 54%
    10:00 +30°C° 0 mm 2 mps 759 mmHg 50%
    11:00 +30°C° 0 mm 2 mps 759 mmHg 50%
    12:00 +30°C° 0 mm 3 mps 759 mmHg 50%
    13:00 +30°C° 0 mm 3 mps 758 mmHg 50%
    14:00 +30°C° 0 mm 3 mps 758 mmHg 50%
    15:00 +30°C° 0 mm 3 mps 758 mmHg 50%
    16:00 +30°C° 0 mm 3 mps 758 mmHg 51%
    17:00 +29°C° 0 mm 2 mps 758 mmHg 55%
    18:00 +28°C° 0 mm 2 mps 758 mmHg 60%
    19:00 +26°C° 0 mm 2 mps 758 mmHg 65%
    20:00 +26°C° 0 mm 2 mps 758 mmHg 64%
    21:00 +25°C° 0 mm 2 mps 759 mmHg 63%
    22:00 +24°C° 0 mm 2 mps 759 mmHg 63%
    23:00 +24°C° 0 mm 2 mps 759 mmHg 62%
    Mostrar más